OneWeb SL0689

operational
NORAD ID: 61597 Int'l Des: 2024-188 Owner: ONEWEBE Country: UK Constellation: oneweb
LEOCIRCULARPOLARONEWEB_TYPE

OneWeb SL0689について

説明を読み込み中...

リアルタイム位置

3D地球を読み込み中...

次回通過

高度履歴

Altitude vs Time

uPlot chart will show altitude changes over time

軌道要素

1 61597U 24188D 25299.11229488 .00000464 00000-0 12746-2 0 9999
2 61597 87.8817 67.6578 0001786 88.0820 272.0512 13.11418402 53772
Epoch: Oct 26, 2025 • Age: 9 hours

現在のステータス

高度 1240.0 km
速度 7.23 km/s
衛星直下点 -54.65°S, 144.08°W
打ち上げ日 Oct 20, 2024
運用期間 1 years
タイプ internet

技術仕様

分類 Payload
質量 148.00 kg
乾燥質量 140.00 kg
総質量 148.00 kg
長さ 1.30 m
直径 1.00 m
スパン 5.00 m
形状 Trapezoid+2 pan
製造者 ONEWUS
バスタイプ ARROW
フェーズステータス In Orbit
所有者/国 ONEWEBE/UK

大規模コンステレーション

Loading constellations...